TimeEDT,TemperatureF,Dew PointF,Humidity,Sea Level PressureIn,VisibilityMPH,Wind Direction,Wind SpeedMPH,Gust SpeedMPH,PrecipitationIn,Events,Conditions,WindDirDegrees,DateUTC
12:11 AM,62.6,57.2,82,29.63,5.0,West,10.4,-,0.07,Rain,Rain,280,2013-09-22 04:11:00
12:51 AM,61.0,57.9,90,29.64,8.0,SSW,3.5,-,0.10,Rain,Light Rain,200,2013-09-22 04:51:00
1:51 AM,61.0,57.9,90,29.65,7.0,Calm,Calm,-,0.10,Rain,Rain,0,2013-09-22 05:51:00
2:51 AM,60.1,57.9,93,29.65,10.0,SSE,3.5,-,0.02,,Overcast,150,2013-09-22 06:51:00
3:51 AM,60.1,57.9,93,29.65,10.0,Calm,Calm,-,N/A,,Overcast,0,2013-09-22 07:51:00
4:29 AM,60.8,57.2,88,29.66,5.0,WNW,12.7,18.4,0.00,Rain,Light Rain,290,2013-09-22 08:29:00
4:51 AM,59.0,53.1,81,29.68,10.0,WNW,12.7,-,0.02,,Overcast,290,2013-09-22 08:51:00
5:51 AM,57.0,52.0,83,29.70,10.0,West,6.9,-,N/A,,Mostly Cloudy,260,2013-09-22 09:51:00
6:51 AM,55.0,50.0,83,29.73,10.0,WNW,6.9,-,N/A,,Scattered Clouds,290,2013-09-22 10:51:00
7:51 AM,55.9,48.9,77,29.74,10.0,West,6.9,-,N/A,,Mostly Cloudy,260,2013-09-22 11:51:00
8:51 AM,57.9,48.9,72,29.76,10.0,West,6.9,-,N/A,,Mostly Cloudy,270,2013-09-22 12:51:00
9:51 AM,59.0,48.0,67,29.76,10.0,West,11.5,-,N/A,,Mostly Cloudy,270,2013-09-22 13:51:00
10:51 AM,61.0,48.9,64,29.77,10.0,West,12.7,17.3,N/A,,Mostly Cloudy,270,2013-09-22 14:51:00
11:51 AM,61.0,48.0,62,29.77,10.0,West,10.4,-,N/A,,Mostly Cloudy,270,2013-09-22 15:51:00
12:51 PM,64.0,48.0,56,29.77,10.0,WNW,17.3,-,N/A,,Mostly Cloudy,290,2013-09-22 16:51:00
1:51 PM,62.1,46.0,56,29.78,10.0,WNW,19.6,27.6,N/A,,Mostly Cloudy,300,2013-09-22 17:51:00
2:51 PM,61.0,44.1,54,29.79,10.0,NW,18.4,25.3,N/A,,Mostly Cloudy,310,2013-09-22 18:51:00
3:51 PM,59.0,41.0,51,29.81,10.0,NW,16.1,-,N/A,,Mostly Cloudy,310,2013-09-22 19:51:00
4:51 PM,59.0,41.0,51,29.82,10.0,WNW,19.6,27.6,N/A,,Mostly Cloudy,300,2013-09-22 20:51:00
5:51 PM,57.0,41.0,55,29.83,10.0,WNW,11.5,21.9,N/A,,Mostly Cloudy,300,2013-09-22 21:51:00
6:51 PM,55.9,41.0,57,29.86,10.0,WNW,12.7,23.0,N/A,,Overcast,300,2013-09-22 22:51:00
7:51 PM,55.0,41.0,59,29.88,10.0,WNW,8.1,19.6,N/A,,Overcast,300,2013-09-22 23:51:00
8:51 PM,54.0,42.1,64,29.90,10.0,WNW,11.5,-,N/A,,Overcast,300,2013-09-23 00:51:00
9:51 PM,53.1,41.0,64,29.92,10.0,WNW,11.5,-,N/A,,Mostly Cloudy,300,2013-09-23 01:51:00
10:51 PM,53.1,41.0,64,29.94,10.0,NW,10.4,-,N/A,,Mostly Cloudy,320,2013-09-23 02:51:00
11:51 PM,50.0,39.9,68,29.94,10.0,WNW,8.1,-,N/A,,Partly Cloudy,300,2013-09-23 03:51:00